owner,sensor,date,latitude,longitude,vertical_datum,mass_concentration_of_oxygen_in_sea_water,qcFlag 
DISL,ioos:station:DISL:CATA:1,2017-06-01T00:00:00Z,30.3085,-88.1395,2.344,7.97,1111122 
DISL,ioos:station:DISL:CATA:1,2017-06-01T00:30:00Z,30.3085,-88.1395,2.325,7.98,1111122 
DISL,ioos:station:DISL:CATA:1,2017-06-01T01:00:00Z,30.3085,-88.1395,2.273,7.9,1111122 
DISL,ioos:station:DISL:CATA:1,2017-06-01T01:30:00Z,30.3085,-88.1395,2.249,7.9,1111122 
DISL,ioos:station:DISL:CATA:1,2017-06-01T02:00:00Z,30.3085,-88.1395,2.217,7.82,1111122 
DISL,ioos:station:DISL:CATA:1,2017-06-01T02:30:00Z,30.3085,-88.1395,2.166,7.76,1111122 
DISL,ioos:station:DISL:CATA:1,2017-06-01T03:00:00Z,30.3085,-88.1395,2.123,7.61,1111122 
DISL,ioos:station:DISL:CATA:1,2017-06-01T03:30:00Z,30.3085,-88.1395,2.112,7.55,1111122 
DISL,ioos:station:DISL:CATA:1,2017-06-01T04:00:00Z,30.3085,-88.1395,2.1,7.59,1111122 
DISL,ioos:station:DISL:CATA:1,2017-06-01T04:30:00Z,30.3085,-88.1395,2.1,7.66,1111122 
DISL,ioos:station:DISL:CATA:1,2017-06-01T05:00:00Z,30.3085,-88.1395,2.097,7.7,1111122 
DISL,ioos:station:DISL:CATA:1,2017-06-01T05:30:00Z,30.3085,-88.1395,2.105,7.6,1111122 
DISL,ioos:station:DISL:CATA:1,2017-06-01T06:00:00Z,30.3085,-88.1395,2.131,7.76,1111122 
DISL,ioos:station:DISL:CATA:1,2017-06-01T06:30:00Z,30.3085,-88.1395,2.156,7.69,1111122 
DISL,ioos:station:DISL:CATA:1,2017-06-01T07:00:00Z,30.3085,-88.1395,2.145,7.47,1111122 
DISL,ioos:station:DISL:CATA:1,2017-06-01T07:30:00Z,30.3085,-88.1395,2.117,7.56,1111122 
DISL,ioos:station:DISL:CATA:1,2017-06-01T08:00:00Z,30.3085,-88.1395,2.092,7.26,1111122 
DISL,ioos:station:DISL:CATA:1,2017-06-01T08:30:00Z,30.3085,-88.1395,2.073,6.97,1111122 
DISL,ioos:station:DISL:CATA:1,2017-06-01T09:00:00Z,30.3085,-88.1395,2.065,7.18,1111122 
DISL,ioos:station:DISL:CATA:1,2017-06-01T09:30:00Z,30.3085,-88.1395,2.064,7.3,1111122 
DISL,ioos:station:DISL:CATA:1,2017-06-01T10:00:00Z,30.3085,-88.1395,2.088,7.46,1111122 
DISL,ioos:station:DISL:CATA:1,2017-06-01T10:30:00Z,30.3085,-88.1395,2.104,7.46,1111122 
DISL,ioos:station:DISL:CATA:1,2017-06-01T11:00:00Z,30.3085,-88.1395,2.131,7.46,1111122 
DISL,ioos:station:DISL:CATA:1,2017-06-01T11:30:00Z,30.3085,-88.1395,2.149,7.39,1111122 
DISL,ioos:station:DISL:CATA:1,2017-06-01T12:00:00Z,30.3085,-88.1395,2.177,7.3,1111122 
DISL,ioos:station:DISL:CATA:1,2017-06-01T12:30:00Z,30.3085,-88.1395,2.197,7.2,1111122 
DISL,ioos:station:DISL:CATA:1,2017-06-01T13:00:00Z,30.3085,-88.1395,2.214,7.06,1111122 
DISL,ioos:station:DISL:CATA:1,2017-06-01T13:30:00Z,30.3085,-88.1395,2.228,7.38,1111122 
DISL,ioos:station:DISL:CATA:1,2017-06-01T14:00:00Z,30.3085,-88.1395,2.253,7.27,1111122 
DISL,ioos:station:DISL:CATA:1,2017-06-01T14:30:00Z,30.3085,-88.1395,2.274,7.18,1111122 
DISL,ioos:station:DISL:CATA:1,2017-06-01T15:00:00Z,30.3085,-88.1395,2.286,7.33,1111122 
DISL,ioos:station:DISL:CATA:1,2017-06-01T15:30:00Z,30.3085,-88.1395,2.282,7.63,1111122 
DISL,ioos:station:DISL:CATA:1,2017-06-01T16:00:00Z,30.3085,-88.1395,2.296,7.68,1111122 
DISL,ioos:station:DISL:CATA:1,2017-06-01T16:30:00Z,30.3085,-88.1395,2.315,7.51,1111122 
DISL,ioos:station:DISL:CATA:1,2017-06-01T17:00:00Z,30.3085,-88.1395,2.323,7.4,1111122 
DISL,ioos:station:DISL:CATA:1,2017-06-01T17:30:00Z,30.3085,-88.1395,2.312,7.23,1111122 
DISL,ioos:station:DISL:CATA:1,2017-06-01T18:00:00Z,30.3085,-88.1395,2.337,7.14,1111122 
DISL,ioos:station:DISL:CATA:1,2017-06-01T18:30:00Z,30.3085,-88.1395,2.335,7.25,1111122 
DISL,ioos:station:DISL:CATA:1,2017-06-01T19:00:00Z,30.3085,-88.1395,2.339,7.46,1111122 
DISL,ioos:station:DISL:CATA:1,2017-06-01T19:30:00Z,30.3085,-88.1395,2.318,7.3,1111122 
DISL,ioos:station:DISL:CATA:1,2017-06-01T20:00:00Z,30.3085,-88.1395,2.314,7.44,1111122 
DISL,ioos:station:DISL:CATA:1,2017-06-01T20:30:00Z,30.3085,-88.1395,2.316,8.23,1111122 
DISL,ioos:station:DISL:CATA:1,2017-06-01T21:00:00Z,30.3085,-88.1395,2.313,8.36,1111122 
DISL,ioos:station:DISL:CATA:1,2017-06-01T21:30:00Z,30.3085,-88.1395,2.325,8.3,1111122 
DISL,ioos:station:DISL:CATA:1,2017-06-01T22:00:00Z,30.3085,-88.1395,2.315,8.33,1111122 
DISL,ioos:station:DISL:CATA:1,2017-06-01T22:30:00Z,30.3085,-88.1395,2.295,7.94,1111122 
DISL,ioos:station:DISL:CATA:1,2017-06-01T23:00:00Z,30.3085,-88.1395,2.288,7.59,1111122 
DISL,ioos:station:DISL:CATA:1,2017-06-01T23:30:00Z,30.3085,-88.1395,2.284,8.23,1111122 
DISL,ioos:station:DISL:CATA:1,2017-06-02T00:00:00Z,30.3085,-88.1395,2.281,8.51,1111122 
DISL,ioos:station:DISL:CATA:1,2017-06-02T00:30:00Z,30.3085,-88.1395,2.272,8.53,1111122 
DISL,ioos:station:DISL:CATA:1,2017-06-02T01:30:00Z,30.3085,-88.1395,2.263,8.11,1111122 
DISL,ioos:station:DISL:CATA:1,2017-06-02T02:00:00Z,30.3085,-88.1395,2.224,7.76,1111122 
DISL,ioos:station:DISL:CATA:1,2017-06-02T02:30:00Z,30.3085,-88.1395,2.211,7.3,1111122 
DISL,ioos:station:DISL:CATA:1,2017-06-02T03:00:00Z,30.3085,-88.1395,2.211,6.87,1111122 
DISL,ioos:station:DISL:CATA:1,2017-06-02T03:30:00Z,30.3085,-88.1395,2.194,6.54,1111122 
DISL,ioos:station:DISL:CATA:1,2017-06-02T04:00:00Z,30.3085,-88.1395,2.187,7.65,1111122 
DISL,ioos:station:DISL:CATA:1,2017-06-02T04:30:00Z,30.3085,-88.1395,2.178,8.16,1111122 
DISL,ioos:station:DISL:CATA:1,2017-06-02T05:00:00Z,30.3085,-88.1395,2.162,8.41,1111122 
DISL,ioos:station:DISL:CATA:1,2017-06-02T05:30:00Z,30.3085,-88.1395,2.146,8.52,1111122 
DISL,ioos:station:DISL:CATA:1,2017-06-02T06:00:00Z,30.3085,-88.1395,2.115,8.51,1111122 
DISL,ioos:station:DISL:CATA:1,2017-06-02T06:30:00Z,30.3085,-88.1395,2.111,8.43,1111122 
DISL,ioos:station:DISL:CATA:1,2017-06-02T07:00:00Z,30.3085,-88.1395,2.117,8.47,1111122 
DISL,ioos:station:DISL:CATA:1,2017-06-02T07:30:00Z,30.3085,-88.1395,2.134,8.45,1111122 
DISL,ioos:station:DISL:CATA:1,2017-06-02T08:00:00Z,30.3085,-88.1395,2.156,8.39,1111122 
DISL,ioos:station:DISL:CATA:1,2017-06-02T08:30:00Z,30.3085,-88.1395,2.182,8.39,1111122 
DISL,ioos:station:DISL:CATA:1,2017-06-02T09:00:00Z,30.3085,-88.1395,2.205,8.31,1111122 
DISL,ioos:station:DISL:CATA:1,2017-06-02T09:30:00Z,30.3085,-88.1395,2.222,7.96,1111122 
DISL,ioos:station:DISL:CATA:1,2017-06-02T10:00:00Z,30.3085,-88.1395,2.229,8.1,1111122 
DISL,ioos:station:DISL:CATA:1,2017-06-02T10:30:00Z,30.3085,-88.1395,2.238,7.94,1111122 
DISL,ioos:station:DISL:CATA:1,2017-06-02T11:00:00Z,30.3085,-88.1395,2.249,7.97,1111122 
DISL,ioos:station:DISL:CATA:1,2017-06-02T11:30:00Z,30.3085,-88.1395,2.271,8.05,1111122 
DISL,ioos:station:DISL:CATA:1,2017-06-02T12:00:00Z,30.3085,-88.1395,2.286,8.14,1111122 
DISL,ioos:station:DISL:CATA:1,2017-06-02T12:30:00Z,30.3085,-88.1395,2.303,8.11,1111122 
DISL,ioos:station:DISL:CATA:1,2017-06-02T13:00:00Z,30.3085,-88.1395,2.302,8.12,1111122 
DISL,ioos:station:DISL:CATA:1,2017-06-02T13:30:00Z,30.3085,-88.1395,2.325,7.08,1111122 
DISL,ioos:station:DISL:CATA:1,2017-06-02T14:00:00Z,30.3085,-88.1395,2.34,5.95,1111122 
DISL,ioos:station:DISL:CATA:1,2017-06-02T15:00:00Z,30.3085,-88.1395,2.33,3.93,1111122 
DISL,ioos:station:DISL:CATA:1,2017-06-02T15:30:00Z,30.3085,-88.1395,2.328,2.87,1111122 
DISL,ioos:station:DISL:CATA:1,2017-06-02T16:00:00Z,30.3085,-88.1395,2.328,2.56,1111122 
DISL,ioos:station:DISL:CATA:1,2017-06-02T16:30:00Z,30.3085,-88.1395,2.323,2.15,1111122 
DISL,ioos:station:DISL:CATA:1,2017-06-02T17:00:00Z,30.3085,-88.1395,2.308,2.13,1111122 
DISL,ioos:station:DISL:CATA:1,2017-06-02T17:30:00Z,30.3085,-88.1395,2.295,2.04,1111122 
DISL,ioos:station:DISL:CATA:1,2017-06-02T18:00:00Z,30.3085,-88.1395,2.286,1.84,1111122 
DISL,ioos:station:DISL:CATA:1,2017-06-02T18:30:00Z,30.3085,-88.1395,2.281,2.29,1111122 
DISL,ioos:station:DISL:CATA:1,2017-06-02T19:00:00Z,30.3085,-88.1395,2.29,2.47,1111122 
DISL,ioos:station:DISL:CATA:1,2017-06-02T19:30:00Z,30.3085,-88.1395,2.273,1.93,1111122 
DISL,ioos:station:DISL:CATA:1,2017-06-02T20:00:00Z,30.3085,-88.1395,2.276,2.49,1111122 
DISL,ioos:station:DISL:CATA:1,2017-06-02T20:30:00Z,30.3085,-88.1395,2.288,4.86,1111122 
DISL,ioos:station:DISL:CATA:1,2017-06-02T21:00:00Z,30.3085,-88.1395,2.29,6.84,1111122 
DISL,ioos:station:DISL:CATA:1,2017-06-02T21:30:00Z,30.3085,-88.1395,2.292,6.92,1111122 
DISL,ioos:station:DISL:CATA:1,2017-06-02T22:00:00Z,30.3085,-88.1395,2.294,7.99,1111122 
DISL,ioos:station:DISL:CATA:1,2017-06-02T22:30:00Z,30.3085,-88.1395,2.314,7.94,1111122 
DISL,ioos:station:DISL:CATA:1,2017-06-02T23:00:00Z,30.3085,-88.1395,2.305,7.87,1111122 
DISL,ioos:station:DISL:CATA:1,2017-06-02T23:30:00Z,30.3085,-88.1395,2.289,6.77,1111122 
DISL,ioos:station:DISL:CATA:1,2017-06-03T00:00:00Z,30.3085,-88.1395,2.303,8.1,1111122 
DISL,ioos:station:DISL:CATA:1,2017-06-03T00:30:00Z,30.3085,-88.1395,2.297,8.28,1111122 
DISL,ioos:station:DISL:CATA:1,2017-06-03T01:00:00Z,30.3085,-88.1395,2.273,7.96,1111122 
DISL,ioos:station:DISL:CATA:1,2017-06-03T01:30:00Z,30.3085,-88.1395,2.282,7.98,1111122 
DISL,ioos:station:DISL:CATA:1,2017-06-03T02:00:00Z,30.3085,-88.1395,2.301,7.93,1111122 
DISL,ioos:station:DISL:CATA:1,2017-06-03T02:30:00Z,30.3085,-88.1395,2.295,8.2,1111122 
DISL,ioos:station:DISL:CATA:1,2017-06-03T03:00:00Z,30.3085,-88.1395,2.269,8.03,1111122 
DISL,ioos:station:DISL:CATA:1,2017-06-03T03:30:00Z,30.3085,-88.1395,2.256,8.02,1111122 
DISL,ioos:station:DISL:CATA:1,2017-06-03T04:00:00Z,30.3085,-88.1395,2.256,8.1,1111122 
DISL,ioos:station:DISL:CATA:1,2017-06-03T04:30:00Z,30.3085,-88.1395,2.237,7.98,1111122 
DISL,ioos:station:DISL:CATA:1,2017-06-03T05:00:00Z,30.3085,-88.1395,2.217,7.94,1111122 
DISL,ioos:station:DISL:CATA:1,2017-06-03T06:00:00Z,30.3085,-88.1395,2.211,7.78,1111122 
DISL,ioos:station:DISL:CATA:1,2017-06-03T06:30:00Z,30.3085,-88.1395,2.193,7.82,1111122 
DISL,ioos:station:DISL:CATA:1,2017-06-03T07:00:00Z,30.3085,-88.1395,2.199,7.8,1111122 
DISL,ioos:station:DISL:CATA:1,2017-06-03T07:30:00Z,30.3085,-88.1395,2.22,7.8,1111122 
DISL,ioos:station:DISL:CATA:1,2017-06-03T08:00:00Z,30.3085,-88.1395,2.24,7.86,1111122 
DISL,ioos:station:DISL:CATA:1,2017-06-03T08:30:00Z,30.3085,-88.1395,2.268,7.82,1111122 
DISL,ioos:station:DISL:CATA:1,2017-06-03T09:00:00Z,30.3085,-88.1395,2.281,7.59,1111122 
DISL,ioos:station:DISL:CATA:1,2017-06-03T09:30:00Z,30.3085,-88.1395,2.296,7.18,1111122 
DISL,ioos:station:DISL:CATA:1,2017-06-03T10:00:00Z,30.3085,-88.1395,2.303,7.57,1111122 
DISL,ioos:station:DISL:CATA:1,2017-06-03T10:30:00Z,30.3085,-88.1395,2.312,7.51,1111122 
DISL,ioos:station:DISL:CATA:1,2017-06-03T11:00:00Z,30.3085,-88.1395,2.316,7.59,1111122 
DISL,ioos:station:DISL:CATA:1,2017-06-03T11:30:00Z,30.3085,-88.1395,2.319,7.61,1111122 
DISL,ioos:station:DISL:CATA:1,2017-06-03T12:00:00Z,30.3085,-88.1395,2.345,7.54,1111122 
DISL,ioos:station:DISL:CATA:1,2017-06-03T12:30:00Z,30.3085,-88.1395,2.35,7.35,1111122 
DISL,ioos:station:DISL:CATA:1,2017-06-03T13:00:00Z,30.3085,-88.1395,2.345,7.43,1111122 
DISL,ioos:station:DISL:CATA:1,2017-06-03T13:30:00Z,30.3085,-88.1395,2.364,7.44,1111122 
DISL,ioos:station:DISL:CATA:1,2017-06-03T14:00:00Z,30.3085,-88.1395,2.39,7.36,1111122 
DISL,ioos:station:DISL:CATA:1,2017-06-03T14:30:00Z,30.3085,-88.1395,2.397,7.5,1111122 
DISL,ioos:station:DISL:CATA:1,2017-06-03T15:00:00Z,30.3085,-88.1395,2.396,7.52,1111122 
DISL,ioos:station:DISL:CATA:1,2017-06-03T15:30:00Z,30.3085,-88.1395,2.385,7.61,1111122 
DISL,ioos:station:DISL:CATA:1,2017-06-03T16:00:00Z,30.3085,-88.1395,2.37,7.91,1111122 
DISL,ioos:station:DISL:CATA:1,2017-06-03T16:30:00Z,30.3085,-88.1395,2.345,7.93,1111122 
DISL,ioos:station:DISL:CATA:1,2017-06-03T17:00:00Z,30.3085,-88.1395,2.32,7.88,1111122 
DISL,ioos:station:DISL:CATA:1,2017-06-03T17:30:00Z,30.3085,-88.1395,2.29,7.72,1111122 
DISL,ioos:station:DISL:CATA:1,2017-06-03T18:00:00Z,30.3085,-88.1395,2.27,7.7,1111122 
DISL,ioos:station:DISL:CATA:1,2017-06-03T18:30:00Z,30.3085,-88.1395,2.249,7.59,1111122 
DISL,ioos:station:DISL:CATA:1,2017-06-03T19:00:00Z,30.3085,-88.1395,2.233,8.02,1111122 
DISL,ioos:station:DISL:CATA:1,2017-06-03T19:30:00Z,30.3085,-88.1395,2.213,8.03,1111122 
DISL,ioos:station:DISL:CATA:1,2017-06-03T20:00:00Z,30.3085,-88.1395,2.198,8.18,1111122 
DISL,ioos:station:DISL:CATA:1,2017-06-03T20:30:00Z,30.3085,-88.1395,2.2,8.34,1111122 
DISL,ioos:station:DISL:CATA:1,2017-06-03T21:00:00Z,30.3085,-88.1395,2.2,8.53,1111122 
DISL,ioos:station:DISL:CATA:1,2017-06-03T21:30:00Z,30.3085,-88.1395,2.195,8.63,1111122 
DISL,ioos:station:DISL:CATA:1,2017-06-03T22:00:00Z,30.3085,-88.1395,2.194,8.83,1111122 
DISL,ioos:station:DISL:CATA:1,2017-06-03T22:30:00Z,30.3085,-88.1395,2.207,9.14,1111122 
DISL,ioos:station:DISL:CATA:1,2017-06-03T23:00:00Z,30.3085,-88.1395,2.217,9.2,1111122 
DISL,ioos:station:DISL:CATA:1,2017-06-03T23:30:00Z,30.3085,-88.1395,2.215,9.15,1111122 
DISL,ioos:station:DISL:CATA:1,2017-06-04T00:00:00Z,30.3085,-88.1395,2.243,8.99,1111122 
DISL,ioos:station:DISL:CATA:1,2017-06-04T00:30:00Z,30.3085,-88.1395,2.189,8.65,1111122 
DISL,ioos:station:DISL:CATA:1,2017-06-04T01:00:00Z,30.3085,-88.1395,2.13,8.07,1111122 
DISL,ioos:station:DISL:CATA:1,2017-06-04T01:30:00Z,30.3085,-88.1395,2.079,8.57,1111122 
DISL,ioos:station:DISL:CATA:1,2017-06-04T02:00:00Z,30.3085,-88.1395,2.064,8.37,1111122 
DISL,ioos:station:DISL:CATA:1,2017-06-04T02:30:00Z,30.3085,-88.1395,2.092,8.1,1111122 
DISL,ioos:station:DISL:CATA:1,2017-06-04T03:00:00Z,30.3085,-88.1395,2.112,8.29,1111122 
DISL,ioos:station:DISL:CATA:1,2017-06-04T03:30:00Z,30.3085,-88.1395,2.145,8.39,1111122 
DISL,ioos:station:DISL:CATA:1,2017-06-04T04:00:00Z,30.3085,-88.1395,2.172,8.29,1111122 
DISL,ioos:station:DISL:CATA:1,2017-06-04T04:30:00Z,30.3085,-88.1395,2.195,8.17,1111122 
DISL,ioos:station:DISL:CATA:1,2017-06-04T05:00:00Z,30.3085,-88.1395,2.202,8.15,1111122 
DISL,ioos:station:DISL:CATA:1,2017-06-04T05:30:00Z,30.3085,-88.1395,2.193,8.08,1111122 
DISL,ioos:station:DISL:CATA:1,2017-06-04T06:00:00Z,30.3085,-88.1395,2.205,7.99,1111122 
DISL,ioos:station:DISL:CATA:1,2017-06-04T06:30:00Z,30.3085,-88.1395,2.23,7.93,1111122 
DISL,ioos:station:DISL:CATA:1,2017-06-04T07:00:00Z,30.3085,-88.1395,2.253,7.82,1111122 
DISL,ioos:station:DISL:CATA:1,2017-06-04T07:30:00Z,30.3085,-88.1395,2.272,7.9,1111122 
DISL,ioos:station:DISL:CATA:1,2017-06-04T08:00:00Z,30.3085,-88.1395,2.287,7.71,1111122 
DISL,ioos:station:DISL:CATA:1,2017-06-04T08:30:00Z,30.3085,-88.1395,2.314,7.65,1111122 
DISL,ioos:station:DISL:CATA:1,2017-06-04T09:30:00Z,30.3085,-88.1395,2.361,7.7,1111122 
DISL,ioos:station:DISL:CATA:1,2017-06-04T10:00:00Z,30.3085,-88.1395,2.383,7.89,1111122 
DISL,ioos:station:DISL:CATA:1,2017-06-04T10:30:00Z,30.3085,-88.1395,2.401,7.7,1111122 
DISL,ioos:station:DISL:CATA:1,2017-06-04T11:00:00Z,30.3085,-88.1395,2.398,7.51,1111122 
DISL,ioos:station:DISL:CATA:1,2017-06-04T11:30:00Z,30.3085,-88.1395,2.395,7.32,1111122 
DISL,ioos:station:DISL:CATA:1,2017-06-04T12:00:00Z,30.3085,-88.1395,2.393,7.21,1111122 
DISL,ioos:station:DISL:CATA:1,2017-06-04T12:30:00Z,30.3085,-88.1395,2.396,7.22,1111122 
DISL,ioos:station:DISL:CATA:1,2017-06-04T13:00:00Z,30.3085,-88.1395,2.401,7.22,1111122 
DISL,ioos:station:DISL:CATA:1,2017-06-04T13:30:00Z,30.3085,-88.1395,2.388,7.46,1111122 
DISL,ioos:station:DISL:CATA:1,2017-06-04T14:00:00Z,30.3085,-88.1395,2.395,7.79,1111122 
DISL,ioos:station:DISL:CATA:1,2017-06-04T14:30:00Z,30.3085,-88.1395,2.398,7.72,1111122 
DISL,ioos:station:DISL:CATA:1,2017-06-04T15:00:00Z,30.3085,-88.1395,2.404,7.71,1111122 
DISL,ioos:station:DISL:CATA:1,2017-06-04T15:30:00Z,30.3085,-88.1395,2.405,7.81,1111122 
DISL,ioos:station:DISL:CATA:1,2017-06-04T16:00:00Z,30.3085,-88.1395,2.407,7.86,1111122 
DISL,ioos:station:DISL:CATA:1,2017-06-04T16:30:00Z,30.3085,-88.1395,2.41,8.07,1111122 
DISL,ioos:station:DISL:CATA:1,2017-06-04T17:00:00Z,30.3085,-88.1395,2.382,8.28,1111122 
DISL,ioos:station:DISL:CATA:1,2017-06-04T17:30:00Z,30.3085,-88.1395,2.348,8.33,1111122 
DISL,ioos:station:DISL:CATA:1,2017-06-04T18:00:00Z,30.3085,-88.1395,2.314,8.4,1111122 
DISL,ioos:station:DISL:CATA:1,2017-06-04T18:30:00Z,30.3085,-88.1395,2.295,8.54,1111122 
DISL,ioos:station:DISL:CATA:1,2017-06-04T19:00:00Z,30.3085,-88.1395,2.281,8.47,1111122 
DISL,ioos:station:DISL:CATA:1,2017-06-04T19:30:00Z,30.3085,-88.1395,2.263,8.58,1111122 
DISL,ioos:station:DISL:CATA:1,2017-06-04T20:00:00Z,30.3085,-88.1395,2.251,8.55,1111122 
DISL,ioos:station:DISL:CATA:1,2017-06-04T20:30:00Z,30.3085,-88.1395,2.227,8.54,1111122 
DISL,ioos:station:DISL:CATA:1,2017-06-04T21:00:00Z,30.3085,-88.1395,2.215,8.64,1111122 
DISL,ioos:station:DISL:CATA:1,2017-06-04T21:30:00Z,30.3085,-88.1395,2.209,8.64,1111122 
DISL,ioos:station:DISL:CATA:1,2017-06-04T22:00:00Z,30.3085,-88.1395,2.234,8.7,1111122 
DISL,ioos:station:DISL:CATA:1,2017-06-04T22:30:00Z,30.3085,-88.1395,2.235,8.48,1111122 
DISL,ioos:station:DISL:CATA:1,2017-06-04T23:00:00Z,30.3085,-88.1395,2.249,8.5,1111122 
DISL,ioos:station:DISL:CATA:1,2017-06-04T23:30:00Z,30.3085,-88.1395,2.258,8.59,1111122 
DISL,ioos:station:DISL:CATA:1,2017-06-05T00:00:00Z,30.3085,-88.1395,2.252,8.94,1111122 
DISL,ioos:station:DISL:CATA:1,2017-06-05T00:30:00Z,30.3085,-88.1395,2.253,8.63,1111122 
DISL,ioos:station:DISL:CATA:1,2017-06-05T01:00:00Z,30.3085,-88.1395,2.245,8.68,1111122 
DISL,ioos:station:DISL:CATA:1,2017-06-05T01:30:00Z,30.3085,-88.1395,2.232,8.61,1111122 
DISL,ioos:station:DISL:CATA:1,2017-06-05T02:00:00Z,30.3085,-88.1395,2.215,8.64,1111122 
DISL,ioos:station:DISL:CATA:1,2017-06-05T02:30:00Z,30.3085,-88.1395,2.218,8.93,1111122 
DISL,ioos:station:DISL:CATA:1,2017-06-05T03:00:00Z,30.3085,-88.1395,2.237,8.96,1111122 
DISL,ioos:station:DISL:CATA:1,2017-06-05T03:30:00Z,30.3085,-88.1395,2.258,8.95,1111122 
DISL,ioos:station:DISL:CATA:1,2017-06-05T04:00:00Z,30.3085,-88.1395,2.282,8.9,1111122 
DISL,ioos:station:DISL:CATA:1,2017-06-05T04:30:00Z,30.3085,-88.1395,2.31,8.81,1111122 
DISL,ioos:station:DISL:CATA:1,2017-06-05T05:00:00Z,30.3085,-88.1395,2.31,8.63,1111122 
DISL,ioos:station:DISL:CATA:1,2017-06-05T05:30:00Z,30.3085,-88.1395,2.323,8.5,1111122 
DISL,ioos:station:DISL:CATA:1,2017-06-05T06:00:00Z,30.3085,-88.1395,2.338,8.35,1111122 
DISL,ioos:station:DISL:CATA:1,2017-06-05T06:30:00Z,30.3085,-88.1395,2.341,8.26,1111122 
DISL,ioos:station:DISL:CATA:1,2017-06-05T07:00:00Z,30.3085,-88.1395,2.353,8.19,1111122 
DISL,ioos:station:DISL:CATA:1,2017-06-05T07:30:00Z,30.3085,-88.1395,2.354,7.98,1111122 
DISL,ioos:station:DISL:CATA:1,2017-06-05T08:00:00Z,30.3085,-88.1395,2.379,7.78,1111122 
DISL,ioos:station:DISL:CATA:1,2017-06-05T08:30:00Z,30.3085,-88.1395,2.402,7.57,1111122 
DISL,ioos:station:DISL:CATA:1,2017-06-05T09:00:00Z,30.3085,-88.1395,2.423,7.51,1111122 
DISL,ioos:station:DISL:CATA:1,2017-06-05T09:30:00Z,30.3085,-88.1395,2.447,7.48,1111122 
DISL,ioos:station:DISL:CATA:1,2017-06-05T10:00:00Z,30.3085,-88.1395,2.471,7.45,1111122 
DISL,ioos:station:DISL:CATA:1,2017-06-05T10:30:00Z,30.3085,-88.1395,2.485,7.35,1111122 
DISL,ioos:station:DISL:CATA:1,2017-06-05T11:00:00Z,30.3085,-88.1395,2.495,7.39,1111122 
DISL,ioos:station:DISL:CATA:1,2017-06-05T11:30:00Z,30.3085,-88.1395,2.512,7.31,1111122 
DISL,ioos:station:DISL:CATA:1,2017-06-05T12:00:00Z,30.3085,-88.1395,2.508,7.21,1111122 
DISL,ioos:station:DISL:CATA:1,2017-06-05T12:30:00Z,30.3085,-88.1395,2.506,6.05,1111122 
DISL,ioos:station:DISL:CATA:1,2017-06-05T13:00:00Z,30.3085,-88.1395,2.487,4.96,1111122 
DISL,ioos:station:DISL:CATA:1,2017-06-05T13:30:00Z,30.3085,-88.1395,2.467,4.25,1111122 
DISL,ioos:station:DISL:CATA:1,2017-06-05T14:00:00Z,30.3085,-88.1395,2.477,4.02,1111122 
DISL,ioos:station:DISL:CATA:1,2017-06-05T14:30:00Z,30.3085,-88.1395,2.479,3.65,1111122 
DISL,ioos:station:DISL:CATA:1,2017-06-05T15:00:00Z,30.3085,-88.1395,2.466,3.05,1111122 
DISL,ioos:station:DISL:CATA:1,2017-06-05T15:30:00Z,30.3085,-88.1395,2.466,2.48,1111122 
DISL,ioos:station:DISL:CATA:1,2017-06-05T16:00:00Z,30.3085,-88.1395,2.478,2.25,1111122 
DISL,ioos:station:DISL:CATA:1,2017-06-05T16:30:00Z,30.3085,-88.1395,2.47,3.43,1111122 
DISL,ioos:station:DISL:CATA:1,2017-06-05T17:00:00Z,30.3085,-88.1395,2.442,2.36,1111122 
DISL,ioos:station:DISL:CATA:1,2017-06-05T17:30:00Z,30.3085,-88.1395,2.408,2.09,1111122 
DISL,ioos:station:DISL:CATA:1,2017-06-05T18:00:00Z,30.3085,-88.1395,2.383,2.73,1111122 
DISL,ioos:station:DISL:CATA:1,2017-06-05T18:30:00Z,30.3085,-88.1395,2.365,2.85,1111122 
DISL,ioos:station:DISL:CATA:1,2017-06-05T19:00:00Z,30.3085,-88.1395,2.335,3.2,1111122 
DISL,ioos:station:DISL:CATA:1,2017-06-05T19:30:00Z,30.3085,-88.1395,2.309,6.9,1111122 
DISL,ioos:station:DISL:CATA:1,2017-06-05T20:00:00Z,30.3085,-88.1395,2.294,8.2,1111122 
DISL,ioos:station:DISL:CATA:1,2017-06-05T20:30:00Z,30.3085,-88.1395,2.285,8.88,1111122 
DISL,ioos:station:DISL:CATA:1,2017-06-05T21:00:00Z,30.3085,-88.1395,2.259,8.77,1111122 
DISL,ioos:station:DISL:CATA:1,2017-06-05T21:30:00Z,30.3085,-88.1395,2.243,8.78,1111122 
DISL,ioos:station:DISL:CATA:1,2017-06-05T22:00:00Z,30.3085,-88.1395,2.246,8.59,1111122 
DISL,ioos:station:DISL:CATA:1,2017-06-05T22:30:00Z,30.3085,-88.1395,2.252,8.74,1111122 
DISL,ioos:station:DISL:CATA:1,2017-06-05T23:00:00Z,30.3085,-88.1395,2.256,8.58,1111122 
DISL,ioos:station:DISL:CATA:1,2017-06-05T23:30:00Z,30.3085,-88.1395,2.265,8.69,1111122 
DISL,ioos:station:DISL:CATA:1,2017-06-06T00:00:00Z,30.3085,-88.1395,2.276,8.51,1111122 
DISL,ioos:station:DISL:CATA:1,2017-06-06T00:30:00Z,30.3085,-88.1395,2.268,8.49,1111122 
DISL,ioos:station:DISL:CATA:1,2017-06-06T01:00:00Z,30.3085,-88.1395,2.266,8.62,1111122 
DISL,ioos:station:DISL:CATA:1,2017-06-06T01:30:00Z,30.3085,-88.1395,2.244,8.34,1111122 
DISL,ioos:station:DISL:CATA:1,2017-06-06T02:00:00Z,30.3085,-88.1395,2.242,8.31,1111122 
DISL,ioos:station:DISL:CATA:1,2017-06-06T02:30:00Z,30.3085,-88.1395,2.246,8.23,1111122 
DISL,ioos:station:DISL:CATA:1,2017-06-06T03:00:00Z,30.3085,-88.1395,2.26,8.58,1111122 
DISL,ioos:station:DISL:CATA:1,2017-06-06T03:30:00Z,30.3085,-88.1395,2.27,8.56,1111122 
DISL,ioos:station:DISL:CATA:1,2017-06-06T04:00:00Z,30.3085,-88.1395,2.281,8.4,1111122 
DISL,ioos:station:DISL:CATA:1,2017-06-06T04:30:00Z,30.3085,-88.1395,2.306,8.47,1111122 
DISL,ioos:station:DISL:CATA:1,2017-06-06T05:00:00Z,30.3085,-88.1395,2.337,8.44,1111122 
DISL,ioos:station:DISL:CATA:1,2017-06-06T05:30:00Z,30.3085,-88.1395,2.357,8.33,1111122 
DISL,ioos:station:DISL:CATA:1,2017-06-06T06:00:00Z,30.3085,-88.1395,2.37,7.98,1111122 
DISL,ioos:station:DISL:CATA:1,2017-06-06T06:30:00Z,30.3085,-88.1395,2.38,8.17,1111122 
DISL,ioos:station:DISL:CATA:1,2017-06-06T07:00:00Z,30.3085,-88.1395,2.387,8.19,1111122 
DISL,ioos:station:DISL:CATA:1,2017-06-06T07:30:00Z,30.3085,-88.1395,2.423,8.23,1111122 
DISL,ioos:station:DISL:CATA:1,2017-06-06T08:00:00Z,30.3085,-88.1395,2.434,8.04,1111122 
DISL,ioos:station:DISL:CATA:1,2017-06-06T08:30:00Z,30.3085,-88.1395,2.465,8.07,1111122 
DISL,ioos:station:DISL:CATA:1,2017-06-06T09:00:00Z,30.3085,-88.1395,2.476,7.83,1111122 
DISL,ioos:station:DISL:CATA:1,2017-06-06T09:30:00Z,30.3085,-88.1395,2.492,7.68,1111122 
DISL,ioos:station:DISL:CATA:1,2017-06-06T10:00:00Z,30.3085,-88.1395,2.512,7.43,1111122 
DISL,ioos:station:DISL:CATA:1,2017-06-06T10:30:00Z,30.3085,-88.1395,2.543,7.36,1111122 
DISL,ioos:station:DISL:CATA:1,2017-06-06T11:00:00Z,30.3085,-88.1395,2.55,6.92,1111122 
DISL,ioos:station:DISL:CATA:1,2017-06-06T11:30:00Z,30.3085,-88.1395,2.581,6.82,1111122 
DISL,ioos:station:DISL:CATA:1,2017-06-06T12:00:00Z,30.3085,-88.1395,2.613,7.24,1111122 
DISL,ioos:station:DISL:CATA:1,2017-06-06T12:30:00Z,30.3085,-88.1395,2.622,7.34,1111122 
DISL,ioos:station:DISL:CATA:1,2017-06-06T13:00:00Z,30.3085,-88.1395,2.634,6.99,1111122 
DISL,ioos:station:DISL:CATA:1,2017-06-06T13:30:00Z,30.3085,-88.1395,2.617,7.0,1111122 
DISL,ioos:station:DISL:CATA:1,2017-06-06T14:00:00Z,30.3085,-88.1395,2.621,6.91,1111122 
DISL,ioos:station:DISL:CATA:1,2017-06-06T14:30:00Z,30.3085,-88.1395,2.616,6.89,1111122 
DISL,ioos:station:DISL:CATA:1,2017-06-06T15:00:00Z,30.3085,-88.1395,2.605,7.11,1111122 
DISL,ioos:station:DISL:CATA:1,2017-06-06T15:30:00Z,30.3085,-88.1395,2.589,7.57,1111122 
DISL,ioos:station:DISL:CATA:1,2017-06-06T16:00:00Z,30.3085,-88.1395,2.572,7.61,1111122 
DISL,ioos:station:DISL:CATA:1,2017-06-06T16:30:00Z,30.3085,-88.1395,2.571,7.65,1111122 
DISL,ioos:station:DISL:CATA:1,2017-06-06T17:00:00Z,30.3085,-88.1395,2.565,7.77,1111122 
DISL,ioos:station:DISL:CATA:1,2017-06-06T17:30:00Z,30.3085,-88.1395,2.548,7.62,1111122 